When you browse on this site, cookies collect data to enhance your experience and personalize the content and advertising you see.
Visit our Privacy Policy to learn more. By continuing to use the site, you agree to this use of cookies and data.
  • In Hungary
  • List of Countries
  • For 7 days
  • Water Temperature
  • Satellite Maps
  • Weather Map
  • News
  • Weather Widgets
  • user-avatar
    Login

    Hourly Weather Vydne

    Today, 17 July, Wednesday

    Time Temperature Precipitation Wind Pressure Humidity
    00:00 +20°C° 0 mm 3 mps 748 mmHg 63%
    01:00 +20°C° 0 mm 3 mps 748 mmHg 64%
    02:00 +19°C° 0 mm 3 mps 747 mmHg 65%
    03:00 +19°C° 0 mm 2 mps 747 mmHg 65%
    04:00 +20°C° 0 mm 2 mps 748 mmHg 66%
    05:00 +20°C° 0 mm 2 mps 748 mmHg 66%
    06:00 +22°C° 0 mm 1 mps 748 mmHg 62%
    07:00 +24°C° 0 mm 1 mps 748 mmHg 58%
    08:00 +25°C° 0 mm 1 mps 747 mmHg 54%
    09:00 +26°C° 0 mm 1 mps 748 mmHg 51%
    10:00 +27°C° 0 mm 2 mps 748 mmHg 48%
    11:00 +28°C° 0 mm 2 mps 748 mmHg 44%
    12:00 +28°C° 0 mm 2 mps 748 mmHg 46%
    13:00 +28°C° 0 mm 3 mps 748 mmHg 47%
    14:00 +27°C° 0 mm 3 mps 747 mmHg 49%
    15:00 +27°C° 0 mm 3 mps 747 mmHg 49%
    16:00 +27°C° 0 mm 3 mps 747 mmHg 50%
    17:00 +27°C° 0 mm 3 mps 747 mmHg 50%
    18:00 +26°C° 0 mm 2 mps 747 mmHg 55%
    19:00 +24°C° 0 mm 2 mps 747 mmHg 59%
    20:00 +23°C° 0 mm 1 mps 747 mmHg 64%
    21:00 +23°C° 0 mm 1 mps 747 mmHg 63%
    22:00 +22°C° 0 mm 1 mps 747 mmHg 62%
    23:00 +22°C° 0 mm 1 mps 747 mmHg 61%

    Tomorrow, 18 July, Thursday

    Time Temperature Precipitation Wind Pressure Humidity
    00:00 +22°C° 0 mm 1 mps 747 mmHg 62%
    01:00 +20°C° 0 mm 2 mps 747 mmHg 64%
    02:00 +20°C° 0 mm 3 mps 747 mmHg 66%
    03:00 +20°C° 0 mm 3 mps 747 mmHg 67%
    04:00 +20°C° 0 mm 3 mps 747 mmHg 68%
    05:00 +20°C° 0 mm 3 mps 747 mmHg 69%
    06:00 +22°C° 0 mm 3 mps 747 mmHg 62%
    07:00 +25°C° 0 mm 3 mps 747 mmHg 55%
    08:00 +26°C° 0 mm 3 mps 748 mmHg 48%
    09:00 +27°C° 0 mm 3 mps 748 mmHg 44%
    10:00 +28°C° 0 mm 4 mps 748 mmHg 39%
    11:00 +29°C° 0 mm 4 mps 748 mmHg 35%
    12:00 +29°C° 0 mm 4 mps 748 mmHg 36%
    13:00 +29°C° 0 mm 4 mps 748 mmHg 37%
    14:00 +29°C° 0 mm 4 mps 748 mmHg 38%
    15:00 +29°C° 0 mm 4 mps 749 mmHg 38%
    16:00 +29°C° 0 mm 3 mps 749 mmHg 38%
    17:00 +28°C° 0 mm 3 mps 749 mmHg 39%
    18:00 +27°C° 0 mm 2 mps 749 mmHg 42%
    19:00 +25°C° 0 mm 1 mps 749 mmHg 46%
    20:00 +24°C° 0 mm 1 mps 750 mmHg 49%
    21:00 +23°C° 0 mm 1 mps 750 mmHg 49%
    22:00 +23°C° 0 mm 2 mps 750 mmHg 50%
    23:00 +23°C° 0 mm 2 mps 751 mmHg 50%

    Day after tomorrow, 19 July, Friday

    Time Temperature Precipitation Wind Pressure Humidity
    00:00 +21°C° 0 mm 3 mps 751 mmHg 52%
    01:00 +21°C° 0 mm 3 mps 751 mmHg 55%
    02:00 +20°C° 0 mm 4 mps 751 mmHg 57%
    03:00 +20°C° 0 mm 4 mps 751 mmHg 58%
    04:00 +20°C° 0 mm 4 mps 751 mmHg 60%
    05:00 +20°C° 0 mm 4 mps 752 mmHg 61%
    06:00 +22°C° 0 mm 3 mps 752 mmHg 58%
    07:00 +25°C° 0 mm 3 mps 752 mmHg 54%
    08:00 +27°C° 0 mm 3 mps 752 mmHg 51%
    09:00 +28°C° 0 mm 3 mps 753 mmHg 48%
    10:00 +28°C° 0 mm 3 mps 753 mmHg 45%
    11:00 +29°C° 0 mm 3 mps 753 mmHg 42%
    12:00 +29°C° 0 mm 3 mps 753 mmHg 43%
    13:00 +29°C° 0 mm 3 mps 753 mmHg 43%
    14:00 +29°C° 0 mm 3 mps 753 mmHg 44%
    15:00 +29°C° 0 mm 3 mps 753 mmHg 43%
    16:00 +28°C° 0 mm 3 mps 753 mmHg 43%
    17:00 +28°C° 0 mm 2 mps 753 mmHg 42%
    18:00 +27°C° 0 mm 2 mps 753 mmHg 47%
    19:00 +26°C° 0 mm 1 mps 753 mmHg 51%
    20:00 +24°C° 0 mm 1 mps 754 mmHg 55%
    21:00 +24°C° 0 mm 1 mps 754 mmHg 57%
    22:00 +23°C° 0 mm 1 mps 754 mmHg 59%
    23:00 +23°C° 0 mm 1 mps 754 mmHg 61%

    20 July, Saturday

    Time Temperature Precipitation Wind Pressure Humidity
    00:00 +22°C° 0 mm 1 mps 754 mmHg 61%
    01:00 +22°C° 0 mm 1 mps 754 mmHg 61%
    02:00 +22°C° 0 mm 1 mps 754 mmHg 61%
    03:00 +22°C° 0 mm 1 mps 754 mmHg 61%
    04:00 +22°C° 0 mm 1 mps 754 mmHg 61%
    05:00 +22°C° 0 mm 1 mps 754 mmHg 60%
    06:00 +24°C° 0 mm 1 mps 754 mmHg 54%
    07:00 +26°C° 0 mm 2 mps 754 mmHg 47%
    08:00 +28°C° 0 mm 2 mps 755 mmHg 40%
    09:00 +29°C° 0 mm 2 mps 755 mmHg 37%
    10:00 +30°C° 0 mm 3 mps 755 mmHg 35%
    11:00 +30°C° 0 mm 3 mps 755 mmHg 33%
    12:00 +31°C° 0 mm 3 mps 755 mmHg 34%
    13:00 +32°C° 0 mm 4 mps 754 mmHg 34%
    14:00 +32°C° 0 mm 4 mps 754 mmHg 34%
    15:00 +30°C° 0 mm 4 mps 754 mmHg 36%
    16:00 +29°C° 0 mm 4 mps 754 mmHg 38%
    17:00 +29°C° 0 mm 4 mps 754 mmHg 40%
    18:00 +27°C° 0 mm 3 mps 754 mmHg 46%
    19:00 +25°C° 0 mm 3 mps 754 mmHg 51%
    20:00 +23°C° 0 mm 2 mps 754 mmHg 56%
    21:00 +23°C° 0 mm 2 mps 754 mmHg 57%
    22:00 +21°C° 0 mm 3 mps 754 mmHg 57%
    23:00 +21°C° 0 mm 3 mps 754 mmHg 58%

    21 July, Sunday

    Time Temperature Precipitation Wind Pressure Humidity
    00:00 +21°C° 0 mm 3 mps 754 mmHg 60%
    01:00 +20°C° 0 mm 3 mps 754 mmHg 61%
    02:00 +20°C° 0 mm 3 mps 753 mmHg 63%
    03:00 +20°C° 0 mm 4 mps 753 mmHg 63%
    04:00 +20°C° 0 mm 4 mps 753 mmHg 64%
    05:00 +21°C° 0 mm 4 mps 753 mmHg 65%
    06:00 +22°C° 0 mm 4 mps 753 mmHg 61%
    07:00 +25°C° 0 mm 5 mps 753 mmHg 57%
    08:00 +27°C° 0 mm 5 mps 753 mmHg 53%
    09:00 +29°C° 0 mm 5 mps 754 mmHg 49%
    10:00 +30°C° 0 mm 6 mps 754 mmHg 44%
    11:00 +32°C° 0 mm 6 mps 754 mmHg 40%
    12:00 +32°C° 0 mm 6 mps 754 mmHg 40%
    13:00 +32°C° 0 mm 6 mps 753 mmHg 40%
    14:00 +32°C° 0 mm 6 mps 753 mmHg 41%
    15:00 +30°C° 0 mm 5 mps 753 mmHg 41%
    16:00 +30°C° 0 mm 5 mps 753 mmHg 42%
    17:00 +29°C° 0 mm 4 mps 753 mmHg 43%
    18:00 +28°C° 0 mm 3 mps 753 mmHg 49%
    19:00 +26°C° 0 mm 3 mps 754 mmHg 55%
    20:00 +24°C° 0 mm 2 mps 754 mmHg 61%
    21:00 +24°C° 0 mm 2 mps 754 mmHg 63%
    22:00 +23°C° 0 mm 2 mps 754 mmHg 66%
    23:00 +23°C° 0 mm 2 mps 754 mmHg 68%

    22 July, Monday

    Time Temperature Precipitation Wind Pressure Humidity
    00:00 +21°C° 0 mm 2 mps 754 mmHg 70%
    01:00 +21°C° 0 mm 2 mps 754 mmHg 71%
    02:00 +22°C° 0 mm 1 mps 754 mmHg 72%
    03:00 +21°C° 0 mm 2 mps 754 mmHg 73%
    04:00 +21°C° 0 mm 2 mps 754 mmHg 74%
    05:00 +21°C° 0 mm 2 mps 754 mmHg 75%
    06:00 +24°C° 0 mm 2 mps 754 mmHg 69%
    07:00 +26°C° 0 mm 3 mps 754 mmHg 63%
    08:00 +28°C° 0 mm 3 mps 754 mmHg 57%
    09:00 +29°C° 0 mm 3 mps 754 mmHg 53%
    10:00 +30°C° 0 mm 4 mps 754 mmHg 48%
    11:00 +32°C° 0 mm 4 mps 754 mmHg 44%
    12:00 +32°C° 0 mm 4 mps 754 mmHg 42%
    13:00 +33°C° 0 mm 4 mps 754 mmHg 40%
    14:00 +33°C° 0 mm 5 mps 753 mmHg 39%
    15:00 +32°C° 0 mm 4 mps 753 mmHg 41%
    16:00 +32°C° 0 mm 4 mps 753 mmHg 43%
    17:00 +30°C° 0 mm 4 mps 753 mmHg 46%
    18:00 +28°C° 0 mm 3 mps 753 mmHg 51%
    19:00 +26°C° 0 mm 2 mps 753 mmHg 57%
    20:00 +24°C° 0 mm 1 mps 752 mmHg 62%
    21:00 +24°C° 0 mm 1 mps 752 mmHg 61%
    22:00 +24°C° 0 mm 2 mps 752 mmHg 60%
    23:00 +24°C° 0 mm 2 mps 752 mmHg 59%
    Show more